Preview of NWS' New Version of Forecast
This preview is not operational and should not be used for support decisions.

Regional Weather Roundup (RWR)

Issued by National Weather Service (NWS)

                            
000
ASUS42 KTBW 210417
RWRFL 
FLORIDA REGIONAL WEATHER ROUNDUP
NATIONAL WEATHER SERVICE TAMPA BAY RUSKIN FL
1200 AM EDT TUE MAY 21 2019

NOTE: "FAIR" INDICATES FEW OR NO CLOUDS BELOW 12,000 FEET WITH NO
SIGNIFICANT WEATHER AND/OR OBSTRUCTIONS TO VISIBILITY.

FLZ001>010-012>015-112-114-115-210500-
PANHANDLE FLORIDA
  
CITY           SKY/WX    TMP DP  RH WIND       PRES   REMARKS
PENSACOLA      FAIR      77  75  93 S7        29.94F                  
PENSACOLA NAS  FAIR      78  74  87 S9        29.93F                  
MILTON NAS     FAIR      75  73  93 S7        29.94                   
CRESTVIEW      FAIR      74  70  87 CALM      29.96F                  
DUKE FIELD     FAIR      73  73 100 CALM      29.95S                  
VALPARAISO     MOCLDY    77  73  88 SW3       29.94F                  
MARY ESTHER    MOCLDY    79  73  83 CALM      29.95F                  
PANAMA CITY    FAIR      73  70  90 CALM      29.95F                  
TYNDALL AFB    FAIR      74  70  87 CALM      29.95F                  
APALACHICOLA   FAIR      69  62  78 CALM      29.96F                  

STATION/POSITION SKY/WX   TEMP    WIND        PRES    WAVE   SWELL
                          AIR SEA DIR/SP/G            HT/PER HT/PER
                          (F)     (DEG/KT/KT) (MB)    (FT/S) (FT/S)
30.1N   87.6W                                   N/A     2/ 5
29.2N   88.2W                     150/ 12/ 14 1014.0F   2/ 5   2/ 6
PANAMA CITY BEAC           78 82  230/  6/  7 1014.8F
TOWER C          NOT AVBL

$$
FLZ011-016>038-118-127-128-134-139-239-210500-
NORTH FLORIDA
  
CITY           SKY/WX    TMP DP  RH WIND       PRES   REMARKS
MARIANNA       FAIR      76  69  79 SW5       29.95F                  
TALLAHASSEE    FAIR      73  63  70 CALM      29.96F                  
PERRY          FAIR      71  62  73 CALM      29.97F                  
LIVE OAK       PTCLDY    72  63  73 CALM      29.96F                  
CROSS CITY     FAIR      69  59  70 CALM      29.97S                  
GAINESVILLE    FAIR      78  67  68 E6        30.01S                  
WILLISTON      FAIR      72  60  66 SE3       29.99S                  
PALATKA        CLOUDY   N/A N/A N/A S3        29.99F                  
MAYPORT NAS    FAIR      77  71  82 S9        29.97F                  
JACKSONVILLE   FAIR      75  69  81 SE8       29.97S                  
JAX NAS        FAIR      79  69  71 S14       29.98F                  
JAX CECIL      FAIR      73  68  83 SE5       29.98F                  
FERNANDINA BEA FAIR      76  71  83 S8        29.98S                  
ST AUGUSTINE   FAIR      77  72  84 S5        30.00S                  
PALM COAST     FAIR      74  70  87 SE3       29.99F                  

STATION/POSITION SKY/WX   TEMP    WIND        PRES    WAVE   SWELL
                          AIR SEA DIR/SP/G            HT/PER HT/PER
                          (F)     (DEG/KT/KT) (MB)    (FT/S) (FT/S)
SHELL POINT      NOT AVBL
KEATON BEACH               82     290/  7/  8 1014.5F
CEDAR KEY                  80     330/  3/  3 1014.7F
FERNANDINA                 79 81  160/  7/  9 1015.7F
30.7N   81.3W                 79                N/A     3/ 4
MAYPORT                    77 80  180/  5/  7 1015.5S
31.4N   80.9W              78 77  190/ 12/ 14 1014.6F   2/ 4   2/ 6
ST AUGUSTINE               78 82  170/ 16/ 17 1015.4F

$$
FLZ040-043>046-052-053-057-058-063-144-210500-
INTERIOR CENTRAL FLORIDA
  
CITY           SKY/WX    TMP DP  RH WIND       PRES   REMARKS
OCALA          CLOUDY    78  65  63 E7        30.00S                  
LEESBURG       MOCLDY    78  69  73 S12       30.01R                  
SANFORD        FAIR      76  70  82 SE6       30.00R                  
ORLANDO EXEC   FAIR      76  70  82 SE8       30.00S                  
ORLANDO INTL   FAIR      75  69  81 SE7       30.00S                  
KISSIMMEE      FAIR      76  71  85 SE6       30.01R                  
WINTER HAVEN   FAIR      78  69  73 SE6       30.01S                  
BARTOW         FAIR      75  70  83 CALM      30.00R                  
SEBRING        FAIR      76  70  81 E7        30.00S                  
OKEECHOBEE     FAIR      73  70  88 SE5       29.99S                  

$$
FLZ041-047-054-059-064-141-147-210500-
EAST CENTRAL FLORIDA
  
CITY           SKY/WX    TMP DP  RH WIND       PRES   REMARKS
DAYTONA BEACH  FAIR      75  72  90 S3        30.00S                  
DELAND         FAIR      73  70  88 SE6       29.99S                  
JFK SPACE CTR  FAIR      74  70  86 S5        29.99S                  
CAPE CANAVERAL FAIR      76  62  59 S9        29.99R                  
PATRICK AFB    FAIR      78  73  85 SE9       29.99S                  
MELBOURNE      FAIR      79  69  71 SE10      30.00R                  
VERO BEACH     FAIR      78  69  73 SE9       29.99S                  
FT PIERCE      FAIR      77  68  73 SE10      29.99S                  
STUART         FAIR      77  66  69 SE9       30.01R                  

STATION/POSITION SKY/WX   TEMP    WIND        PRES    WAVE   SWELL
                          AIR SEA DIR/SP/G            HT/PER HT/PER
                          (F)     (DEG/KT/KT) (MB)    (FT/S) (FT/S)
28.5N   80.2W              79     140/ 12/ 14 1016.1
28.9N   78.5W              77 79  130/  6/  8 1016.6
TRIDENT PIER               77 82  130/  9/ 12 1017.1S
28.4N   80.5W                 80                N/A     2/ 3
27.5N   80.2W                 80                N/A     2/ 7

$$
FLZ050-056-061-142-242-148-248-149-249-151-251-155-255-
160-260-210500-
WEST CENTRAL FLORIDA
  
CITY           SKY/WX    TMP DP  RH WIND       PRES   REMARKS
CRYSTAL RIVER  FAIR      73  63  68 CALM      29.99S                  
INVERNESS      MOCLDY    73  72  94 CALM      30.00S                  
BROOKSVILLE    FAIR      76  66  71 CALM      30.00S                  
CLEARWATER AIR MOCLDY    77  64  65 CALM      29.98S                  
ST PETE CLEARW FAIR      79  66  64 E6        29.98S                  
TAMPA INTL     MOCLDY    81  68  64 SE5       29.99S                  
TAMPA EXEC     CLOUDY    73  72  94 CALM      30.00S                  
PLANT CITY     FAIR      79  70  73 E3        30.02S                  
MACDILL AFB    CLOUDY    77  70  78 E5        29.98F                  
PETER O KNIGHT DRIZZLE   79  73  83 S7        29.99S                  
ST PETERSBURG    N/A    N/A N/A N/A MISG        N/A                   
SARASOTA       CLOUDY    79  68  69 SE9       29.96S                  
VENICE         CLOUDY    79  70  73 SE9       29.98F                  

STATION/POSITION SKY/WX   TEMP    WIND        PRES    WAVE   SWELL
                          AIR SEA DIR/SP/G            HT/PER HT/PER
                          (F)     (DEG/KT/KT) (MB)    (FT/S) (FT/S)
27.3N   84.2W                 80                N/A     1/ 7
CLEARWATER BEACH           80 86   70/  6/  7 1015.4S
MIDDLE TAMPA BAY           79     130/  9/ 12 1015.1S
VENICE                     78 82  120/  8/  9 1015.1F

$$
FLZ066-069-070-075>078-162-262-165-265-210500-
SOUTHWEST FLORIDA AND KEYS
  
CITY           SKY/WX    TMP DP  RH WIND       PRES   REMARKS
PUNTA GORDA    FAIR      75  70  84 CALM      30.00S                  
FT MYERS       CLOUDY    76  72  87 CALM      29.98S                  
SOUTHWEST INTL MOCLDY    77  70  79 SE5       29.98S                  
NAPLES         FAIR      75  73  93 SE3       29.98S                  
MARCO ISLAND   CLOUDY    77  72  84 CALM      29.99S                  
IMMOKALEE      MOCLDY    73  70  88 CALM      29.98S                  
MARATHON       FAIR      83  70  64 E7        29.98R                  
KEY WEST NAS   FAIR      82  71  69 SE9       29.97S                  
KEY WEST INTL  FAIR      81  72  74 SE8       29.98S                  

STATION/POSITION SKY/WX   TEMP    WIND        PRES    WAVE   SWELL
                          AIR SEA DIR/SP/G            HT/PER HT/PER
                          (F)     (DEG/KT/KT) (MB)    (FT/S) (FT/S)
NAPLES                     80 85              1015.3S
DRY TORTUGAS               81      40/  2/  3 1015.2S
SAND KEY                   81                 1015.1S
SOMBRERO KEY               81                 1014.5S

$$
FLZ067-068-071>074-168-172>174-210500-
SOUTHEAST FLORIDA 
  
CITY           SKY/WX    TMP DP  RH WIND       PRES   REMARKS
W PALM BEACH   FAIR      81  69  67 E12       30.00S                  
FT LAUDER-EXEC FAIR      80  68  66 E8        29.98F                  
FT LAUDERDALE  FAIR      80  69  69 E13       29.98S                  
POMPANO BEACH  FAIR      80  68  66 SE10      29.98F                  
PEMBROKE PINES FAIR      79  69  71 E8        30.00S                  
OPA LOCKA      FAIR      79  69  71 E7        29.99S                  
MIAMI          FAIR      80  69  69 E7        29.99S                  
WEST KENDALL   FAIR      80  70  71 E7        29.98F                  
HOMESTEAD      FAIR      79  71  75 E5        29.97S                  

STATION/POSITION SKY/WX   TEMP    WIND        PRES    WAVE   SWELL
                          AIR SEA DIR/SP/G            HT/PER HT/PER
                          (F)     (DEG/KT/KT) (MB)    (FT/S) (FT/S)
PORT EVERGLADES            81     120/  4/  9 1015.4S
VIRGINIA KEY               81 84   90/  9/ 12 1014.7F
LAKE WORTH                 80 82              1016.6F
SETTLEMENT POINT           79     100/ 11/ 12 1016.1F

$$